Skip Page Navigation
NASA JPL Caltech
NASA Logo - Jet Propulsion Laboratory + View the NASA Portal
+ Center for Near-Earth Object Studies
JPL Home Earth Solar System Stars & Galaxies Technology
JPL Solar System Dynamics
BODIES ORBITS EPHEMERIDES TOOLS PHYSICAL DATA DISCOVERY FAQ SITE MAP
JPL Small-Body Database Browser
Search: [ help ]  
79214 (1994 GS6)
Classification: Main-belt Asteroid          SPK-ID: 2079214
Ephemeris | Orbit Diagram | Orbital Elements | Mission Design | Physical Parameters | Discovery Circumstances | Close-Approach Data ]

[ show orbit diagram ]
Orbital Elements at Epoch 2459000.5 (2020-May-31.0) TDB
Reference: JPL 17 (heliocentric ecliptic J2000)
 Element Value Uncertainty (1-sigma)   Units 
e .03421638341944939 4.3529e-08  
a 2.280425749829803 1.1097e-08 au
q 2.202397828014041 9.995e-08 au
i 4.788601432318793 5.1531e-06 deg
node 205.8471502278376 5.7835e-05 deg
peri 273.8857417617716 0.00010512 deg
M 287.6978908226295 9.1033e-05 deg
tp 2459253.121783613353
(2021-Feb-07.62178361)
0.00031866 TDB
period 1257.831108048384
3.44
9.1814e-06
2.514e-08
d
yr
n .286206945985432 2.0891e-09 deg/d
Q 2.358453671645565 1.1477e-08 au
  Orbit Determination Parameters
   # obs. used (total)      359  
   data-arc span      9351 days (25.60 yr)  
   first obs. used      1994-04-11  
   last obs. used      2019-11-17  
   planetary ephem.      DE431  
   SB-pert. ephem.      SB431-N16  
   condition code      0  
   norm. resid. RMS      .51809  
   source      ORB  
   producer      Otto Matic  
   solution date      2019-Dec-14 07:43:04  

Additional Information
 Earth MOID = 1.22423 au 
 Jupiter MOID = 2.65051 au 
 T_jup = 3.600 
[ show covariance matrix ]

Ephemeris | Orbit Diagram | Orbital Elements | Mission Design | Physical Parameters | Discovery Circumstances | Close-Approach Data ]

Physical Parameter Table
Parameter Symbol Value Units Sigma Reference Notes
absolute magnitude H 16.9   n/a MPO436334  
rotation period rot_per 1.9 h n/a LCDB (Rev. 2019-August); Warner et al., 2009 lower-limit; Incomplete or inconclusive result.
Published Reference List:
[Erasmus, N.; McNeill, A.; Mommert, M.; Trilling, D.E.; et al. (2018) Ap. J. Suppl. Series 237, A19.]
[Erasmus, N.; McNeill, A.; Mommert, N.; Trilling, D.E.; et al. (2019) Ap. J. Suppl. Series 242, A15.]

79214 (1994 GS6)          Discovered 1994-Apr-11 by Spacewatch at Kitt Peak
Reference: 20040504/Numbers.arcLast Updated: 2004-07-16

[ show close-approach data ]
Alternate Designations
 1994 GS6 = 2001 HG39 
Ephemeris | Orbit Diagram | Orbital Elements | Mission Design | Physical Parameters | Discovery Circumstances | Close-Approach Data ]
ABOUT SSD CREDITS/AWARDS PRIVACY/COPYRIGHT GLOSSARY LINKS
FirstGov 2020-Sep-22 14:38 UT
(server date/time)  
NASA Home Page
Site Manager:   Ryan S. Park
Webmaster  Alan B. Chamberlin